This is the latest recevied weather packets stored in our database for station/object IT9RID. If no packets are shown the sender has not sent any weather packets the latest 10 day(s).
| Time | Temp. | Humidity | Pressure | Rain* | Wind** | Luminosity | Snow |
|---|---|---|---|---|---|---|---|
| 1787624780 | 25° C | 77% | 1013 hPa | 0 mm | - | - | - |
| 1787624180 | 25° C | 77% | 1012.9 hPa | 0 mm | - | - | - |
| 1787623580 | 25° C | 77% | 1012.9 hPa | 0 mm | - | - | - |
| 1787622979 | 25.56° C | 78% | 1013.1 hPa | 0 mm | - | - | - |
| 1787622379 | 25.56° C | 79% | 1013.4 hPa | 0 mm | - | - | - |
| 1787621779 | 25.56° C | 77% | 1013.6 hPa | 0 mm | - | - | - |
| 1787621179 | 26.11° C | 78% | 1013.9 hPa | 0 mm | - | - | - |
| 1787620579 | 25.56° C | 76% | 1014.3 hPa | 0 mm | - | - | - |
| 1787619979 | 25.56° C | 77% | 1014.5 hPa | 0 mm | - | - | - |
| 1787619378 | 25.56° C | 77% | 1014.4 hPa | 0 mm | - | - | - |
| 1787618778 | 26.11° C | 76% | 1014.6 hPa | 0 mm | - | - | - |
| 1787618178 | 26.11° C | 75% | 1014.6 hPa | 0 mm | - | - | - |
| 1787617578 | 26.11° C | 75% | 1015 hPa | 0 mm | - | - | - |
| 1787616978 | 26.11° C | 75% | 1014.9 hPa | 0 mm | - | - | - |
| 1787616378 | 26.11° C | 75% | 1015.2 hPa | 0 mm | - | - | - |
| 1787615777 | 26.11° C | 76% | 1015.3 hPa | 0 mm | - | - | - |
| 1787615177 | 26.11° C | 75% | 1015.2 hPa | 0 mm | - | - | - |
| 1787614577 | 26.11° C | 75% | 1015.1 hPa | 0 mm | - | - | - |
| 1787613986 | 26.11° C | 76% | 1015.2 hPa | 0 mm | - | - | - |
| 1787613377 | 26.67° C | 77% | 1015.3 hPa | 0 mm | - | - | - |
| 1787612780 | 26.67° C | 77% | 1015.5 hPa | 0 mm | - | - | - |
| 1787612178 | 26.67° C | 76% | 1015.4 hPa | 0 mm | - | - | - |
| 1787611576 | 26.67° C | 75% | 1015.6 hPa | 0 mm | - | - | - |
| 1787610376 | 27.22° C | 74% | 1015.8 hPa | 0 mm | - | - | - |
| 1787609776 | 27.22° C | 74% | 1015.9 hPa | 0 mm | - | - | - |
* Rain latest hour (hover to see other rain measurements)
** Current wind speed in m/s (hover to see current wind gust speed)